Location: Syke, Rochdale
(53.6121°N, 2.1588°W)
Time: 03:21:57
(UTC+02:00)

STRAND 1 - Visible Passes

Search period start: 20 July 2018 00:00
Search period end: 30 July 2018 00:00
Orbit: 768 x 781 km, 98.5° (Epoch: 19 July)

Date Brightness Start Highest point End Pass type
(mag) Time Alt. Az. Time Alt. Az. Time Alt. Az.
22 Jul ? 00:09:37 10° NNW 00:12:23 15° NW 00:15:08 10° W visible
22 Jul ? 23:34:56 10° N 23:38:54 23° NW 23:42:53 10° WSW visible
23 Jul ? 23:00:34 10° N 23:05:17 38° WNW 23:09:58 10° SW visible
25 Jul ? 00:06:56 10° NNW 00:09:49 15° NW 00:12:41 10° W visible
25 Jul ? 23:32:16 10° N 23:36:20 24° NW 23:40:22 10° WSW visible
26 Jul ? 22:57:56 10° N 23:02:42 40° WNW 23:07:25 10° SW visible
28 Jul ? 00:04:16 10° NNW 00:07:15 16° NW 00:10:13 10° W visible
28 Jul ? 23:29:38 10° N 23:33:45 25° WNW 23:37:51 10° WSW visible
29 Jul ? 22:55:18 10° N 23:00:06 41° WNW 23:04:52 10° SW visible
